FENGYUN 1C DEB *, 46989

Orbit data source: Space-Track

FENGYUN 1C DEB *, 46989 is space debris in SSO originally from a launch on Mon, 10 May 1999 UTC launched from the Taiyaun Space Center, China (TSC). Fengyun 1C debris stems from the Chinese weather satellite Fengyun-1C, which was intentionally destroyed by a Chinese anti-satellite missile in 2007. This event dramatically increased the amount of space debris, with thousands of trackable fragments posing hazards to satellites and human spaceflight. The Fengyun 1C debris cloud has become a focal point in discussions about space sustainability and the need for international regulations to prevent the creation of new debris.

Loading next visibility...
Identifier
46989, 1999-025EZP
Orbit
SSO
Country
Flag of CNCN / PRC
Related business
Manufacturer
Unknown
Mission
Spacecraft
Bus & Motor
Unknown
Mass
Unknown
Launch date (UTC)
1999-05-10 (27 years ago)
Launch vehicle
Unknown
Launch site
Taiyaun Space Center, China (TSC)
Object type
Payload
Rocket body
Debris
Shape & HBR
Unknown shape, 0.1 m
Radar Cross Section
Small (<0.1 m²)

Expand to show TLE details & history
Last TLE update: 21 hours ago

TLE from 21 hours ago
0 FENGYUN 1C DEB *
1 46989U 99025EZP 26208.75117280  .00004077  00000-0  31035-2 0  9992
2 46989  99.5216  17.1437 0237646 101.4067 275.0103 13.81787027741756
Epoch: 2026-07-27T18:01Z
TLE epoch observation values (Epoch: 2026-07-27T18:01:41.329Z)
Latitude
13.47329°
Longitude
159.00016°
Altitude
948.546 km
Speed
7.384 km/s
True Right ascension
00h 59m 24s
True Declination
13° 23' 51"
Sunlit
Object was in daylight at epoch
Visualization orbit readout
Latitude
Unknown
Longitude
Unknown
Altitude
Unknown
Speed
Unknown
Apparent Right ascension
Unknown
Apparent Declination
Unknown
Sunlit
N/A
Visualization observer readout
Local Sidereal Time
04:46:26
Azimuth
Unknown
Elevation
Unknown
Doppler factor
Unknown
Orbital elements
Apogee altitude
1,129.067 km
Perigee altitude
780.538 km
Semi-major axis
7,332.94 km
Eccentricity
0.02376
Inclination
99.5216°
RAAN
17.1437°
Arg. of periapsis
101.4067°
True anomaly
272.29145°
Mean anomaly
275.0103°
Eccentric anomaly
273.65145°
Mean motion
3.45642 °/min
Orbital period
104.15 mins
BSTAR
0.0031035
Loading maneuver chart data...
Computing Atmospheric mass density...

Documentation

Showing up to 5 results
|